sat.trackr.live / text

‹ back to catalog

STARLINK-3105

NORAD 49440 · 2021-104AJ

PAYLOAD ACTIVE UNKNOWN

§ Identity

Operator
Country
US
Launch date
2021-11-13
Launch site
AFETR
Launch vehicle
Mass (kg)
RCS (m²)

Purposes: comms

External: N2YO · Heavens-Above · Gunter

§ Orbital elements

Epoch: 2026-05-24T15:58:07.436640Z

Period
95.44 min
Inclination
53.2158°
Eccentricity
0.0000850
Mean motion
15.08861058 rev/d
Perigee alt
539.1 km
Apogee alt
540.3 km
Semi-major
6,917.8 km
B*
-1.9454e-4
RAAN
228.0535°
Arg perigee
94.6995°
Mean anomaly
265.4094°
Rev number
25,038

§ Raw data

STARLINK-31051 49440U 21104AJ  26144.66536385 -.00003384  00000+0 -19454-3 0  99932 49440  53.2158 228.0535 0000850  94.6995 265.4094 15.08861058250387

JSON: /api/v1/satellites/49440 · /tle

For live sub-satellite position, see the globe view (requires WebGL).

§ Visibility from observer

Set your observer location to see the next 7 days of passes ≥ 10°. The values pass through the URL so the page stays shareable.

No JS? Fill the form by hand. The geolocation button needs JavaScript.